Weather History for Clearfield, PA

Change the Weather History Date:

Friday, August 3, 2012

  Actual Average (KDUJ) Record (KDUJ)
Temperature  
Mean Temperature 74 °F 68 °F  
Max Temperature 90 °F 78 °F 89 °F (1988)
Min Temperature 59 °F 58 °F 48 °F (1976)
Degree Days  
Heating Degree Days 0 1  
Month to date heating degree days 3  
Since 1 June heating degree days 112  
Since 1 July heating degree days 27  
Cooling Degree Days 9 4  
Month to date cooling degree days 12  
Year to date cooling degree days 237  
Since 1 June cooling degree days 214  
Growing Degree Days 24 (Base 50)    
Moisture  
Dew Point 62 °F    
Average Humidity 77    
Maximum Humidity 100    
Minimum Humidity 36    
Precipitation  
Precipitation 0.00 in 0.12 in 1.85 in (1964)
Month to date precipitation 0.40  
Sea Level Pressure  
Sea Level Pressure 30.03 in    
Wind  
Wind Speed 3 mph (NNW)    
Max Wind Speed 9 mph    
Max Gust Speed -    
Visibility 8 miles    
Events      
T = Trace of Precipitation, MM = Missing Value Source: NWS Daily Summary

Daily Weather History Graph

Daily Weather History Graph

Search for Another Location

Airport:

Trip Planner

Search our weather history database for the weather conditions in past years. The results will help you decide how hot, cold, wet, or windy it might be!

Date:

Astronomy

Aug. 03, 2012 Rise Set
Actual Time 6:11 AM EDT 8:27 PM EDT
Civil Twilight 5:41 AM EDT 8:57 PM EDT
Nautical Twilight 5:03 AM EDT 9:35 PM EDT
Astronomical Twilight 4:21 AM EDT 10:16 PM EDT
Moon 9:02 PM EDT (8/3) 7:54 AM EDT (8/3)
Length of Visible Light 15h 16m
Length of Day
14h 15m
Full, 97% of the Moon is Illuminated
Aug 3
Full
Aug 9
Last Quarter
Aug 17
New
Aug 24
First Quarter
Aug 31
Full

Hourly Weather History & Observations

Time (EDT) Temp. Heat Index Dew Point Humidity Pressure Visibility Wind Dir Wind Speed Gust Speed Precip Events Conditions
12:54 AM 63.0 °F - 61.0 °F 93% 29.97 in 10.0 mi North 5.8 mph - N/A   Clear
1:54 AM 63.0 °F - 60.1 °F 90% 29.96 in 9.0 mi Calm Calm - N/A   Clear
2:54 AM 62.1 °F - 59.0 °F 90% 29.96 in 10.0 mi NNW 4.6 mph - N/A   Clear
3:54 AM 61.0 °F - 60.1 °F 97% 29.98 in 7.0 mi Calm Calm - N/A   Clear
4:54 AM 61.0 °F - 59.0 °F 93% 29.99 in 7.0 mi Calm Calm - N/A   Clear
5:54 AM 61.0 °F - 59.0 °F 93% 30.00 in 8.0 mi Calm Calm - N/A   Partly Cloudy
6:07 AM 60.8 °F - 60.8 °F 100% 30.03 in 3.0 mi Calm Calm - N/A   Mostly Cloudy
6:10 AM 60.8 °F - 60.8 °F 100% 30.03 in 1.8 mi Calm Calm - N/A   Mostly Cloudy
6:17 AM 60.8 °F - 59.0 °F 94% 30.03 in 2.0 mi Calm Calm - N/A   Scattered Clouds
6:25 AM 59.0 °F - 57.2 °F 94% 30.03 in 1.8 mi North 4.6 mph - N/A   Mostly Cloudy
6:32 AM 59.0 °F - 57.2 °F 94% 30.03 in 1.8 mi North 4.6 mph - N/A   Mostly Cloudy
6:42 AM 59.0 °F - 57.2 °F 94% 30.04 in 3.0 mi North 4.6 mph - N/A   Mostly Cloudy
6:54 AM 60.1 °F - 59.0 °F 96% 30.01 in 3.0 mi Calm Calm - N/A   Mostly Cloudy
7:03 AM 60.8 °F - 59.0 °F 94% 30.04 in 4.0 mi North 3.5 mph - N/A   Scattered Clouds
7:54 AM 64.0 °F - 61.0 °F 90% 30.02 in 7.0 mi Calm Calm - N/A   Clear
8:54 AM 66.0 °F - 62.1 °F 87% 30.04 in 9.0 mi Calm Calm - N/A   Clear
9:54 AM 73.0 °F - 64.0 °F 73% 30.04 in 10.0 mi Calm Calm - N/A   Clear
11:54 AM 82.9 °F 83.3 °F 61.0 °F 47% 30.04 in 10.0 mi Calm Calm - N/A   Clear
12:54 PM 86.0 °F 86.1 °F 61.0 °F 43% 30.03 in 10.0 mi Variable 6.9 mph - N/A   Clear
1:54 PM 89.1 °F 90.0 °F 63.0 °F 42% 30.03 in 10.0 mi Variable 5.8 mph - N/A   Clear
2:54 PM 89.1 °F 91.0 °F 64.9 °F 45% 30.02 in 10.0 mi SSW 5.8 mph - N/A   Partly Cloudy
3:54 PM 89.1 °F 88.2 °F 59.0 °F 36% 30.02 in 10.0 mi South 8.1 mph - N/A   Clear
4:54 PM 88.0 °F 89.3 °F 64.0 °F 45% 30.02 in 10.0 mi South 9.2 mph - N/A   Clear
5:54 PM 86.0 °F 88.8 °F 66.9 °F 53% 30.03 in 10.0 mi SSW 5.8 mph - N/A   Clear
6:54 PM 84.0 °F 86.5 °F 66.9 °F 56% 30.03 in 10.0 mi Calm Calm - N/A   Clear
7:54 PM 81.0 °F 83.0 °F 66.0 °F 60% 30.05 in 10.0 mi Calm Calm - N/A   Partly Cloudy
8:54 PM 78.1 °F - 64.9 °F 64% 30.06 in 10.0 mi East 3.5 mph - N/A   Clear
9:54 PM 73.0 °F - 66.0 °F 79% 30.09 in 10.0 mi North 3.5 mph - N/A   Clear
10:54 PM 71.1 °F - 66.9 °F 87% 30.08 in 9.0 mi North 4.6 mph - N/A   Clear
11:54 PM 69.1 °F - 66.0 °F 90% 30.09 in 8.0 mi North 4.6 mph - N/A   Clear